Location: Kopernik Observatory
(42.0014°N, 76.0372°W)
Time: 13:37:40
(UTC-04:00)

Daily predictions for brighter satellites

Satellite Brightness Start Highest point End
(mag) Time Altitude Azimuth Time Altitude Azimuth Time Altitude Azimuth
CORIOLIS 4.2 18:34:43 10° SSE 18:40:06 84° ENE 18:45:34 10° NNW
MTI 4.0 18:37:35 10° NNE 18:40:44 49° E 18:43:50 10° S
Cosmos 1727 Rocket 4.1 18:35:01 10° N 18:41:21 66° E 18:47:37 10° SSE
Abrixas 3.4 18:42:43 10° SSW 18:44:24 20° SE 18:46:06 10° E
CZ-4 R/B 1.5 18:40:19 10° SSE 18:44:32 89° W 18:48:41 10° NNW
Delta 2 Rocket 4.5 18:41:48 10° WSW 18:45:24 31° S 18:48:40 10° ESE
Iridium 4 Rocket 4.5 18:41:18 10° SE 18:46:10 31° E 18:51:14 10° NNE
Cosmos 2221 3.2 18:44:22 10° SSE 18:48:14 33° E 18:52:08 10° NNE
Cosmos 2098 Rocket 4.4 18:44:18 10° SE 18:48:14 27° E 18:53:00 10° NNE
GP-B 3.1 18:43:49 10° N 18:48:15 68° E 18:52:40 10° S
SKYMED 2 3.9 18:44:36 10° NNE 18:48:46 43° E 18:52:53 10° S
IRS-1A Rocket 4.4 18:43:35 10° SSE 18:49:28 88° ENE 18:55:25 10° NNW
Cosmos 1743 Rocket 3.6 18:45:28 10° N 18:49:52 87° W 18:54:18 10° S
CZ-4 R/B 4.4 18:46:10 10° SSE 18:50:16 65° ENE 18:54:24 10° N
Aureole 2 4.4 18:47:37 10° N 18:50:41 52° ENE 18:54:08 10° SSE
Cosmos 44 3.4 18:49:15 10° S 18:53:22 42° ESE 18:57:28 10° NE
Cosmos 921 Rocket 3.0 18:49:02 10° NNW 18:53:28 64° ENE 18:57:47 10° SSE
ERS-2 2.5 18:53:17 10° S 18:56:57 70° WSW 19:00:39 10° NNW
Cosmos 2322 3.7 18:52:27 10° NNW 18:58:13 84° ENE 19:03:55 10° SSE
EO 1 Del DPAF 3.2 18:55:02 10° NNE 18:58:53 69° ESE 19:02:42 10° S
Cosmos 1842 Rocket 3.7 18:54:41 10° S 18:59:09 81° W 19:03:37 10° N
Abrixas rocket 3.8 18:57:52 10° WNW 19:00:42 25° N 19:03:10 12° NE
SMAP 4.3 18:59:04 10° S 19:03:32 46° W 19:08:02 10° NNW
SL-8 R/B 4.1 19:00:00 10° W 19:04:45 59° NNW 19:09:08 12° ENE
Cosmos 1726 3.0 19:03:01 10° SSE 19:06:13 28° E 19:09:24 10° NNE
Cosmos 2219 Rocket 2.7 19:02:35 10° N 19:07:44 36° ENE 19:12:53 10° SE
SL-24 R/B - RUBIN 2 4.3 19:03:12 10° NW 19:07:57 58° WSW 19:12:16 10° SSE
Meteor 2-1 Rocket 4.4 19:02:45 10° S 19:08:34 89° WNW 19:14:31 10° N
Cosmos 1315 Rocket 2.8 19:04:41 10° N 19:08:47 81° ENE 19:12:54 10° SSE
Cosmos 1500 Rocket 3.9 19:06:03 10° NNW 19:10:23 68° W 19:14:39 10° S
Cosmos 1048 Rocket 4.0 19:07:21 10° S 19:12:22 58° ESE 19:17:24 10° NNE
Cosmos 158 Rocket 3.9 19:08:28 10° S 19:13:29 73° ESE 19:18:41 10° NNE
APEX 2.4 19:12:31 10° SSW 19:15:41 76° ESE 19:18:22 11° NNE
DELTA 2 R/B (1) 4.4 19:10:32 10° W 19:15:53 47° SSW 19:21:06 11° SE
NOAA 12 4.1 19:10:52 10° SSE 19:16:05 62° ENE 19:21:21 10° N
METEOR-M 4.2 19:12:38 10° SSE 19:17:59 86° WSW 19:23:22 10° NNW
Cosmos 1420 Rocket 4.1 19:13:00 10° NNW 19:18:21 86° WSW 19:23:38 10° SSE
NOSS 0 Rocket 4.4 19:17:13 10° NNW 19:22:59 39° NE 19:27:35 15° ESE
CZ-4C R/B 2.1 19:18:28 10° SSW 19:23:32 63° ESE 19:29:20 10° NE
FREGAT/IRIS 3.8 19:24:03 25° NE 19:24:03 25° NE 19:26:06 10° NNE
Cosmos 44 Rocket 3.1 19:20:58 10° SSW 19:25:40 87° SE 19:30:24 10° NNE
SJ-6B 3.7 19:30:48 27° ENE 19:30:48 27° ENE 19:33:49 10° NNE
Lacrosse 5 rocket 3.9 19:30:19 10° NNW 19:31:25 11° N 19:32:30 10° N
Resurs 01 Rocket 3.5 19:33:44 14° NE 19:33:44 14° NE 19:34:54 10° NNE
Cosmos 2333 4.2 19:28:20 10° NNW 19:34:07 87° ENE 19:39:52 10° SSE
Thor Agena Rocket 3.6 19:29:23 10° NNE 19:34:20 49° E 19:39:12 10° S
Sich 1 3.3 19:31:19 10° N 19:35:34 46° ENE 19:39:48 10° SSE
Cosmos 1908 4.2 19:32:58 10° SSW 19:36:46 51° W 19:40:35 10° N
COSMO-SKYMED 1 3.3 19:32:34 10° N 19:36:50 55° WNW 19:41:04 10° SSW
Cosmos 1535 Rocket 4.3 19:36:11 10° S 19:42:16 72° E 19:48:22 10° NNE
In-Cosmos 22 Rocket 4.5 19:36:50 10° N 19:42:22 46° ENE 19:47:57 10° SSE
Cosmos 2237 Rocket 2.7 19:38:12 10° N 19:43:31 38° ENE 19:45:24 30° E
Atlas Centaur 2 4.2 19:42:53 10° SW 19:45:05 13° SSW 19:47:31 10° SSE
H-2A R/B 2.8 19:43:55 25° SE 19:45:58 55° ENE 19:49:49 10° N
USA 267 4.1 19:45:00 26° ESE 19:46:20 28° SE 19:51:45 10° S
Gbstr 26 Del rocket 3.6 19:42:01 10° NW 19:47:05 89° NE 19:50:40 26° SE
Cosmos 1331 Rocket 4.3 19:42:07 10° N 19:47:08 45° ENE 19:48:56 32° ESE
Cosmos 1805 Rocket 3.6 19:44:58 10° N 19:49:21 80° W 19:53:46 10° S
Cosmos 2227 Rocket 2.6 19:45:56 10° S 19:51:04 37° ESE 19:52:06 34° E
SL-16 R/B 3.5 19:50:53 10° N 19:54:46 22° NE 19:54:46 22° NE
Cosmos 1666 Rocket 3.4 19:54:16 10° N 19:58:37 82° E 20:02:43 11° S
ALOS 3.2 19:57:47 10° S 20:02:19 50° W 20:06:52 10° NNW
Cosmos 1300 2.6 19:59:43 10° S 20:03:32 82° W 20:07:23 10° N
Cosmos 1633 Rocket 2.9 19:59:47 10° N 20:04:14 77° E 20:06:13 32° SSE
Cosmos 1980 3.6 20:02:10 10° NNW 20:07:47 63° ENE 20:09:17 46° ESE
Meteor 2-3 Rocket 4.2 20:02:49 10° N 20:07:50 41° ENE 20:07:50 41° ENE
CSL-04 DEB 4.5 20:12:42 62° NNE 20:12:42 62° NNE 20:16:09 10° N
Cosmos 1934 Rocket 4.1 20:06:12 10° S 20:12:34 80° W 20:18:58 10° N
Cosmos 1821 Rocket 4.5 20:06:31 10° SSW 20:12:35 60° W 20:18:47 10° N
Aureole 2 Rocket 3.8 20:10:17 10° NNW 20:14:05 46° WSW 20:16:42 19° S
COSMOS 2428 3.9 20:09:44 10° NW 20:15:02 41° WSW 20:20:19 10° S
Cosmos 1302 Rocket 4.5 20:10:38 10° N 20:14:50 42° NE 20:14:50 42° NE
Cosmos 2333 Rocket 2.3 20:12:28 10° NNW 20:18:13 76° WSW 20:21:36 26° SSE
Cosmos 2219 4.1 20:14:58 10° SW 20:20:31 48° WNW 20:26:05 10° NNE
USA 234 4.3 20:20:48 27° NE 20:22:22 30° NNE 20:27:52 10° NW
BREEZE-M DEB (TANK) 3.4 20:09:37 10° WNW 20:25:16 82° NNE 20:26:19 61° ESE
Cosmos 2297 Rocket 2.5 20:22:49 10° S 20:27:03 48° SSE 20:27:03 48° SSE
Cosmos 494 Rocket 3.9 20:24:12 10° SSW 20:29:18 82° WNW 20:30:45 48° N
Cosmos 2084 4.3 20:28:44 10° NW 20:31:39 43° W 20:31:39 43° W
Cosmos 1110 Rocket 4.4 20:29:30 10° NNW 20:34:46 61° WSW 20:36:35 38° SSW
USA 32 4.0 20:31:49 10° N 20:36:35 74° N 20:36:35 74° N
Cosmos 2082 4.1 20:32:08 10° SSW 20:36:17 49° S 20:36:17 49° S
Meteor 2-2 Rocket 4.5 20:32:29 10° SSW 20:38:09 68° W 20:43:46 10° N
BREEZE-M DEB (TANK) 3.3 20:34:20 10° WNW 20:41:00 56° NNW 20:41:00 56° NNW
Cosmos 1605 Rocket 4.3 20:40:58 10° SSW 20:47:00 62° W 20:53:03 10° N
Cosmos 1153 Rocket 4.4 20:44:51 10° S 20:51:00 86° W 20:57:15 10° N
Cosmos 2219 Rocket 3.7 20:46:39 10° NW 20:51:37 33° WSW 20:55:32 15° SSW
Cosmos 967 Rocket 4.4 20:47:18 10° NNW 20:53:40 86° NW 20:53:40 86° NW
Envisat 4.3 21:01:48 34° NNW 21:01:48 34° NNW 21:04:38 10° NNW
Resurs 01 Rocket 4.0 21:11:19 18° NNW 21:11:19 18° NNW 21:12:32 10° NNW
CZ-4C R/B 4.1 21:08:02 10° W 21:12:35 26° NW 21:15:06 20° N
Cosmos 2237 Rocket 3.7 21:22:27 10° NW 21:27:16 32° W 21:27:16 32° W
USA 267 4.2 21:32:23 40° WSW 21:32:23 40° WSW 21:36:18 10° SW
Cosmos 2227 Rocket 3.8 21:30:02 10° WSW 21:34:04 31° WNW 21:34:04 31° WNW
SL-16 R/B 4.0 21:34:13 10° NNW 21:36:39 26° NW 21:36:39 26° NW
CZ-3A R/B 4.1 21:44:53 10° NW 21:56:32 63° NW 21:56:32 63° NW
